PST,Max TemperatureF,Mean TemperatureF,Min TemperatureF,Max Dew PointF,MeanDew PointF,Min DewpointF,Max Humidity, Mean Humidity, Min Humidity, Max Sea Level PressureIn, Mean Sea Level PressureIn, Min Sea Level PressureIn, Max VisibilityMiles, Mean VisibilityMiles, Min VisibilityMiles, Max Wind SpeedMPH, Mean Wind SpeedMPH, Max Gust SpeedMPH,PrecipitationIn, CloudCover, Events, WindDirDegrees
2013-2-1,49,36,22,32,28,22,92,71,50,30.45,30.37,30.28,,,,9,2,12,0.00,,,72
2013-2-2,45,34,22,33,27,20,92,75,58,30.50,30.43,30.33,,,,8,2,9,0.00,,,52
2013-2-3,45,34,23,34,29,23,100,83,65,30.35,30.28,30.22,,,,10,4,12,0.00,,,56
2013-2-4,54,42,30,35,30,27,89,62,35,30.21,30.11,30.00,,,,16,7,20,0.00,,,146
2013-2-5,53,40,27,33,27,14,92,57,22,30.05,29.96,29.87,,,,23,5,30,0.01,,,232
2013-2-6,47,36,24,28,24,20,92,63,34,30.16,30.08,30.00,,,,16,6,20,0.00,,,170
2013-2-7,48,39,29,28,24,17,92,61,29,29.98,29.92,29.85,,,,25,9,32,0.10,,,210
2013-2-8,37,28,19,26,22,16,92,74,56,29.99,29.94,29.90,,,,20,8,25,0.00,,,340
2013-2-9,42,28,14,22,18,11,84,66,47,30.07,30.03,29.98,,,,18,9,23,0.00,,,270
2013-2-10,42,31,20,24,19,15,84,59,34,30.20,30.13,30.05,,,,17,7,22,0.00,,,336
2013-2-11,44,31,17,24,19,14,84,62,39,30.28,30.24,30.20,,,,14,7,17,0.00,,,187
2013-2-12,49,36,23,26,23,18,81,55,29,30.41,30.36,30.28,,,,13,8,17,0.00,,,191
2013-2-13,55,40,24,28,25,19,92,59,26,30.40,30.34,30.28,,,,16,6,21,0.00,,,230
2013-2-14,49,37,24,27,25,21,88,62,36,30.53,30.46,30.35,,,,13,5,15,0.00,,,20
2013-2-15,55,39,22,31,27,20,88,63,38,30.55,30.45,30.33,,,,15,5,18,0.00,,,145
2013-2-16,60,43,25,30,24,17,85,54,23,30.34,30.15,30.00,,,,22,9,28,0.00,,,230
2013-2-17,42,31,20,19,15,12,68,49,30,30.13,30.10,30.04,,,,16,5,21,0.00,,,79
2013-2-18,50,33,15,21,17,11,80,53,26,30.12,29.92,29.68,,,,16,5,23,0.00,,,167
2013-2-19,40,31,22,31,26,20,92,72,52,29.81,29.69,29.64,,,,21,7,28,0.03,,,186
2013-2-20,40,26,12,21,17,13,92,64,35,29.99,29.94,29.83,,,,17,7,23,0.00,,,286
2013-2-21,42,30,17,23,19,15,92,65,37,30.14,30.09,30.00,,,,17,7,24,0.00,,,201
2013-2-22,47,35,23,31,24,20,88,64,40,30.17,30.04,29.78,,,,31,13,41,0.00,,,197
2013-2-23,39,30,21,31,19,14,85,61,37,30.30,30.09,29.82,,,,38,14,49,0.07,,,276
2013-2-24,42,28,14,17,14,9,80,54,27,30.40,30.32,30.20,,,,14,8,21,0.00,,,188
2013-2-25,44,34,23,31,19,11,89,57,25,30.25,30.14,30.06,,,,28,9,35,0.02,,,259
2013-2-26,42,29,15,18,13,10,80,54,28,30.38,30.33,30.26,,,,16,6,20,0.00,,,180
2013-2-27,50,37,24,18,15,11,63,42,21,30.38,30.33,30.29,,,,15,7,18,0.00,,,159
2013-2-28,56,45,33,38,30,19,85,65,44,30.49,30.38,30.30,,,,21,8,26,0.00,,,212